Somerville, NJ

5:42 AM EDT on May 24, 2017 (GMT -0400)
Somerset

Weather History for KSMQ - March, 2012

Change the Weather History Date:

Monday, March 19, 2012

  Actual Average Record
Temperature  
Mean Temperature 59 °F -  
Max Temperature 78 °F 48 °F 78 °F (2012)
Min Temperature 41 °F 26 °F 0 °F (1967)
Degree Days  
Heating Degree Days 6    
Growing Degree Days 9 (Base 50)    
Moisture  
Dew Point 44 °F    
Average Humidity 77    
Maximum Humidity 97    
Minimum Humidity 37    
Precipitation  
Precipitation 0.20 in - - ()
Sea Level Pressure  
Sea Level Pressure 30.19 in    
Wind  
Wind Speed 1 mph (SSW)    
Max Wind Speed 8 mph    
Max Gust Speed 16 mph    
Visibility 6 miles    
Events Fog    
Averages and records for this station are not official NWS values.
T = Trace of Precipitation, MM = Missing Value Source: NWS Daily Summary

Daily Weather History Graph

Daily Weather History Graph

Search for Another Location

Airport or City:

Trip Planner

Search our weather history database for the weather conditions in past years. The results will help you decide how hot, cold, wet, or windy it might be!

Date:

Astronomy

Mar. 19, 2012 Rise Set
Actual Time 7:02 AM EDT 7:10 PM EDT
Civil Twilight 6:35 AM EDT 7:37 PM EDT
Nautical Twilight 6:03 AM EDT 8:09 PM EDT
Astronomical Twilight 5:31 AM EDT 8:41 PM EDT
Moon 5:14 AM EDT (3/19) 4:35 PM EDT (3/19)
Length of Visible Light 13h 01m
Length of Day
12h 07m
Waning Crescent, 8% of the Moon is Illuminated
Mar 19
Waning Crescent
Mar 22
New
Mar 30
First Quarter
Apr 6
Full
Apr 13
Last Quarter

Hourly Weather History & Observations

Time (EDT) Temp. Dew Point Humidity Pressure Visibility Wind Dir Wind Speed Gust Speed Precip Events Conditions
12:53 AM 45.0 °F 43.0 °F 93% 30.21 in 4.0 mi Calm Calm - N/A   Clear
1:53 AM 44.1 °F 42.1 °F 93% 30.20 in 6.0 mi Calm Calm - N/A   Clear
2:36 AM 42.8 °F 41.0 °F 93% 30.19 in 1.5 mi Calm Calm - N/A   Clear
2:45 AM 42.8 °F 41.0 °F 93% 30.19 in 0.5 mi Calm Calm - N/A Fog Fog
2:49 AM 42.8 °F 41.0 °F 93% 30.19 in 1.5 mi Calm Calm - N/A   Partly Cloudy
2:51 AM 42.8 °F 41.0 °F 93% 30.19 in 4.0 mi Calm Calm - N/A   Partly Cloudy
2:53 AM 43.0 °F 41.0 °F 93% 30.19 in 6.0 mi Calm Calm - N/A   Partly Cloudy
3:53 AM 42.1 °F 39.9 °F 92% 30.19 in 4.0 mi Calm Calm - N/A   Clear
4:51 AM 42.8 °F 39.2 °F 87% 30.18 in 5.0 mi Calm Calm - N/A   Mostly Cloudy
4:52 AM 42.1 °F 39.9 °F 92% 30.18 in 5.0 mi Calm Calm - N/A   Mostly Cloudy
5:03 AM 41.0 °F 39.2 °F 93% 30.18 in 5.0 mi Calm Calm - N/A   Mostly Cloudy
5:28 AM 42.8 °F 39.2 °F 87% 30.18 in 6.0 mi Calm Calm - N/A   Overcast
5:43 AM 42.8 °F 39.2 °F 87% 30.18 in 6.0 mi Calm Calm - N/A   Overcast
5:53 AM 42.1 °F 39.9 °F 92% 30.19 in 6.0 mi Calm Calm - N/A   Overcast
6:07 AM 41.0 °F 39.2 °F 93% 30.19 in 1.5 mi Calm Calm - N/A   Overcast
6:16 AM 41.0 °F 39.2 °F 93% 30.19 in 0.5 mi Calm Calm - N/A Fog Fog
6:35 AM 41.0 °F 39.2 °F 93% 30.19 in 0.8 mi Calm Calm - N/A   Mist
6:48 AM 41.0 °F 39.2 °F 93% 30.19 in 0.2 mi Calm Calm - N/A Fog Fog
6:53 AM 42.1 °F 39.9 °F 92% 30.20 in 0.2 mi Calm Calm - N/A Fog Fog
7:53 AM 42.8 °F 41.0 °F 93% 30.21 in 0.2 mi Calm Calm - N/A Fog Fog
8:47 AM 48.2 °F 46.4 °F 93% 30.21 in 1.0 mi Calm Calm - N/A   Mist
8:53 AM 48.9 °F 48.0 °F 97% 30.21 in 2.0 mi Calm Calm - N/A   Scattered Clouds
9:05 AM 50.0 °F 48.2 °F 94% 30.21 in 3.0 mi Calm Calm - N/A   Partly Cloudy
9:53 AM 57.9 °F 51.1 °F 78% 30.21 in 6.0 mi Calm Calm - N/A   Haze
10:53 AM 64.9 °F 53.1 °F 65% 30.20 in 10.0 mi SSW 3.5 mph - N/A   Clear
11:53 AM 70.0 °F 53.1 °F 55% 30.19 in - Variable 3.5 mph - N/A   Clear
12:53 PM 73.0 °F 53.1 °F 49% 30.18 in 10.0 mi Variable 4.6 mph - 0.20 in   Clear
1:53 PM 75.0 °F 54.0 °F 48% 30.17 in 10.0 mi North - - N/A   Clear
2:53 PM 77.0 °F 54.0 °F 45% 30.15 in 10.0 mi Calm Calm - N/A   Clear
3:53 PM 77.0 °F 52.0 °F 42% 30.13 in 10.0 mi Variable 6.9 mph - N/A   Clear
4:53 PM 77.0 °F 50.0 °F 39% 30.13 in 10.0 mi SSW 8.1 mph 16.1 mph N/A   Clear
5:53 PM 75.9 °F 48.0 °F 37% 30.13 in 10.0 mi WSW 8.1 mph - N/A   Clear
6:53 PM 73.0 °F 46.9 °F 39% 30.14 in 10.0 mi Calm Calm - N/A   Clear
7:53 PM 64.0 °F 48.0 °F 56% 30.15 in 10.0 mi Calm Calm - N/A   Clear
8:53 PM 64.9 °F 43.0 °F 45% 30.19 in 10.0 mi South 3.5 mph - N/A   Clear
9:53 PM 60.1 °F 44.1 °F 55% 30.20 in 10.0 mi SSE 3.5 mph - N/A   Clear
10:53 PM 55.9 °F 45.0 °F 67% 30.21 in 10.0 mi Calm Calm - N/A   Clear
11:53 PM 54.0 °F 48.0 °F 80% 30.22 in 10.0 mi Calm Calm - N/A   Clear